QPF
0.00 0.00 0.00 0.00 0.00 0.00 0.00 0.00 0.00 0.00 0.00 0.00 0.01 0.00 0.00 0.00 0.00 0.00 0.01 0.02 0.05 0.04 0.01 0.00 0.00 0.00 0.01 0.02 0.03 0.04 0.04 0.03 0.03
0.00 0.00 0.00 0.00 0.00 0.00 0.00 0.00 0.00 0.00 0.00 0.00 0.00 0.00 0.00 0.00 0.00 0.00 0.01 0.03 0.03 0.03 0.01 0.01 0.00 0.00 0.00 0.00 0.00 0.00 0.01 0.00 0.00
0.00 0.00 0.00 0.00 0.00 0.00 0.00 0.00 0.00 0.00 0.00 0.00 0.00 0.00 0.00 0.00 0.00 0.00 0.02 0.04 0.01 0.01 0.00 0.01 0.00 0.00 0.00 0.00 0.00 0.00 0.00 0.00 0.00
0.00 0.00 0.00 0.00 0.00 0.00 0.00 0.00 0.00 0.01 0.00 0.00 0.00 0.00 0.00 0.00 0.00 0.00 0.00 0.01 0.00 0.00 0.00 0.00 0.00 0.00 0.00 0.00 0.00 0.00 0.00 0.00 0.00
0.00 0.00 0.00 0.00 0.00 0.00 0.00 0.00 0.01 0.00 0.00 0.00 0.00 0.00 0.00 0.00 0.00 0.00 0.01 0.01 0.00 0.00 0.00 0.00 0.00 0.00 0.00 0.00 0.00 0.00 0.00 0.00 0.00
0.00 0.00 0.00 0.00 0.00 0.00 0.00 0.00 0.00 0.00 0.00 0.00 0.00 0.00 0.00 0.00 0.00 0.00 0.00 0.00 0.00 0.00 0.00 0.00 0.00 0.00 0.00 0.00 0.00 0.00 0.00 0.00 0.00
0.00 0.00 0.00 0.00 0.00 0.00 0.00 0.00 0.00 0.00 0.00 0.00 0.00 0.00 0.00 0.00 0.00 0.00 0.00 0.00 0.00 0.00 0.00 0.00 0.00 0.00 0.00 0.00 0.00 0.00 0.00 0.00 0.00
0.00 0.00 0.00 0.00 0.00 0.00 0.00 0.00 0.00 0.00 0.00 0.00 0.00 0.00 0.00 0.00 0.00 0.00 0.00 0.00 0.00 0.00 0.00 0.00 0.00 0.00 0.00 0.00 0.00 0.00 0.00 0.00 0.00
0.00 0.00 0.00 0.00 0.00 0.00 0.00 0.00 0.00 0.00 0.00 0.00 0.00 0.00 0.00 0.00 0.00 0.00 0.00 0.01 0.00 0.00 0.00 0.00 0.00 0.00 0.00 0.00 0.00 0.00 0.00 0.00 0.00
0.00 0.00 0.00 0.00 0.00 0.00 0.00 0.00 0.00 0.00 0.00 0.00 0.00 0.00 0.00 0.00 0.00 0.00 0.00 0.01 0.01 0.00 0.00 0.00 0.00 0.00 0.00 0.00 0.00 0.00 0.00 0.00 0.00
0.00 0.00 0.00 0.00 0.00 0.00 0.00 0.00 0.00 0.00 0.00 0.00 0.00 0.00 0.00 0.00 0.00 0.00 0.00 0.00 0.00 0.00 0.01 0.00 0.00 0.00 0.00 0.00 0.00 0.00 0.00 0.00 0.00
0.00 0.00 0.00 0.00 0.00 0.00 0.00 0.00 0.00 0.00 0.00 0.00 0.00 0.00 0.00 0.00 0.00 0.00 0.00 0.00 0.00 0.00 0.00 0.00 0.00 0.00 0.00 0.00 0.00 0.00 0.00 0.00 0.00
0.00 0.00 0.00 0.00 0.00 0.00 0.00 0.00 0.00 0.00 0.00 0.00 0.00 0.00 0.00 0.00 0.00 0.00 0.00 0.00 0.00 0.00 0.00 0.00 0.00 0.00 0.00 0.00 0.00 0.00 0.00 0.00 0.00
0.00 0.00 0.00 0.00 0.00 0.00 0.00 0.00 0.00 0.00 0.00 0.00 0.00 0.00 0.00 0.00 0.00 0.00 0.00 0.00 0.00 0.00 0.00 0.00 0.00 0.00 0.00 0.00 0.00 0.00 0.00 0.00 0.00
0.00 0.00 0.00 0.00 0.00 0.00 0.00 0.00 0.00 0.00 0.00 0.00 0.00 0.00 0.00 0.00 0.00 0.00 0.00 0.00 0.00 0.00 0.00 0.00 0.00 0.00 0.00 0.00 0.00 0.00 0.00 0.00 0.00
0.00 0.00 0.00 0.00 0.00 0.00 0.00 0.00 0.00 0.00 0.00 0.00 0.00 0.00 0.00 0.00 0.00 0.00 0.00 0.00 0.00 0.00 0.00 0.00 0.00 0.00 0.00 0.00 0.00 0.00 0.00 0.00 0.00
0.00 0.00 0.00 0.00 0.00 0.00 0.00 0.00 0.00 0.00 0.00 0.00 0.00 0.00 0.00 0.00 0.00 0.00 0.00 0.00 0.00 0.00 0.00 0.00 0.00 0.00 0.00 0.00 0.00 0.00 0.00 0.00 0.00
0.00 0.00 0.00 0.00 0.00 0.00 0.00 0.00 0.00 0.00 0.00 0.00 0.00 0.00 0.00 0.00 0.00 0.00 0.00 0.00 0.00 0.00 0.00 0.00 0.00 0.00 0.00 0.00 0.00 0.00 0.00 0.00 0.00
0.00 0.00 0.00 0.00 0.00 0.00 0.00 0.00 0.00 0.00 0.00 0.00 0.00 0.00 0.00 0.00 0.00 0.00 0.00 0.00 0.00 0.00 0.00 0.00 0.00 0.00 0.00 0.00 0.00 0.00 0.00 0.00 0.00
0.00 0.00 0.00 0.00 0.00 0.00 0.00 0.00 0.00 0.00 0.00 0.00 0.00 0.00 0.00 0.00 0.00 0.00 0.00 0.00 0.00 0.00 0.00 0.00 0.00 0.00 0.00 0.00 0.00 0.00 0.00 0.00 0.00
MSLP
1017.89 1018.23 1018.62 1018.95 1019.22 1019.44 1019.54 1019.81 1020.02 1020.23 1020.45 1020.64 1020.89 1021.12 1021.36 1021.55 1021.60 1021.64 1021.50 1021.57 1021.50 1021.65 1021.80 1022.03 1022.30 1022.23 1022.26 1022.53 1022.66 1022.69 1022.54 1022.59 1022.73
1018.26 1018.65 1019.02 1019.25 1019.44 1019.59 1019.85 1020.08 1020.21 1020.43 1020.64 1021.03 1021.25 1021.44 1021.68 1021.85 1021.94 1021.98 1021.95 1021.96 1021.82 1022.12 1022.46 1022.63 1022.77 1022.90 1023.10 1023.30 1023.27 1023.17 1023.18 1023.19 1023.26
1018.62 1018.96 1019.29 1019.52 1019.62 1019.87 1020.12 1020.21 1020.39 1020.58 1020.91 1021.30 1021.43 1021.66 1021.92 1022.14 1022.21 1022.35 1022.36 1022.26 1022.50 1022.81 1023.08 1023.27 1023.45 1023.59 1023.75 1023.86 1023.84 1023.84 1023.78 1023.79 1023.86
1018.86 1019.16 1019.47 1019.74 1019.88 1020.19 1020.33 1020.44 1020.64 1020.85 1021.22 1021.54 1021.70 1022.03 1022.32 1022.67 1022.79 1022.81 1022.95 1022.92 1023.13 1023.33 1023.59 1023.74 1024.10 1024.24 1024.29 1024.27 1024.32 1024.34 1024.33 1024.43 1024.35
1019.12 1019.37 1019.67 1019.92 1020.15 1020.47 1020.66 1020.76 1020.97 1021.31 1021.64 1021.84 1021.86 1022.34 1022.80 1023.14 1023.30 1023.39 1023.26 1023.23 1023.62 1023.82 1024.05 1024.40 1024.54 1024.63 1024.73 1024.78 1024.85 1024.91 1024.85 1025.02 1024.90
1019.49 1019.68 1019.94 1020.22 1020.47 1020.73 1020.98 1021.12 1021.41 1021.80 1022.02 1022.21 1022.51 1022.80 1023.22 1023.40 1023.68 1023.63 1023.64 1023.74 1024.07 1024.40 1024.65 1024.85 1024.97 1025.09 1025.26 1025.32 1025.41 1025.48 1025.43 1025.51 1025.47
1019.89 1019.90 1020.23 1020.60 1020.81 1021.05 1021.42 1021.65 1022.01 1022.23 1022.75 1023.03 1023.23 1023.59 1023.79 1023.78 1023.77 1023.91 1023.83 1024.07 1024.55 1024.86 1025.08 1025.24 1025.35 1025.43 1025.62 1025.67 1025.78 1025.90 1025.97 1025.98 1025.95
1020.44 1020.48 1020.82 1021.12 1021.34 1021.70 1022.04 1022.37 1022.58 1022.98 1023.29 1023.68 1023.90 1024.05 1024.23 1024.30 1024.29 1024.12 1024.31 1024.63 1024.92 1025.20 1025.44 1025.58 1025.68 1025.83 1025.87 1025.95 1026.10 1026.19 1026.24 1026.25 1026.26
1021.05 1021.31 1021.58 1021.78 1021.92 1022.21 1022.54 1022.81 1023.11 1023.47 1023.77 1024.03 1024.38 1024.55 1024.73 1024.81 1024.73 1024.52 1024.64 1024.91 1025.25 1025.56 1025.75 1025.91 1026.01 1026.17 1026.22 1026.38 1026.47 1026.51 1026.53 1026.48 1026.46
1021.35 1021.71 1021.96 1022.27 1022.41 1022.57 1022.91 1023.20 1023.55 1023.94 1024.23 1024.49 1024.63 1025.01 1025.21 1025.20 1025.21 1025.08 1025.06 1025.23 1025.49 1025.75 1026.06 1026.30 1026.34 1026.50 1026.62 1026.80 1026.88 1026.89 1026.89 1026.84 1026.84
1021.51 1022.01 1022.28 1022.55 1022.65 1022.77 1023.03 1023.35 1023.84 1024.35 1024.59 1024.98 1025.16 1025.43 1025.64 1025.70 1025.78 1025.77 1025.63 1025.58 1025.77 1025.90 1026.10 1026.37 1026.53 1026.69 1026.88 1027.11 1027.21 1027.22 1027.25 1027.29 1027.29
1021.52 1021.99 1022.39 1022.59 1022.85 1023.00 1023.32 1023.81 1024.22 1024.66 1024.96 1025.37 1025.66 1025.84 1026.01 1026.12 1026.27 1026.32 1026.37 1026.40 1026.30 1026.24 1026.34 1026.56 1026.73 1026.89 1027.03 1027.29 1027.64 1027.77 1027.75 1027.75 1027.69
1021.49 1021.88 1022.18 1022.51 1022.88 1023.11 1023.43 1023.94 1024.66 1024.97 1025.29 1025.79 1025.98 1026.22 1026.39 1026.55 1026.64 1026.75 1026.89 1027.05 1027.11 1026.89 1026.87 1027.02 1027.13 1027.21 1027.31 1027.64 1027.84 1027.97 1028.01 1027.99 1027.94
1021.42 1021.67 1021.93 1022.23 1022.68 1023.10 1023.27 1024.00 1024.20 1025.13 1025.62 1025.98 1026.33 1026.49 1026.63 1026.78 1026.87 1027.09 1027.22 1027.38 1027.51 1027.52 1027.43 1027.57 1027.62 1027.71 1027.83 1027.95 1028.07 1028.17 1028.22 1028.17 1028.10
1021.09 1021.49 1021.88 1022.28 1022.61 1023.02 1023.37 1023.74 1024.47 1024.95 1025.42 1026.11 1026.62 1026.89 1027.08 1027.11 1027.22 1027.26 1027.30 1027.39 1027.52 1027.70 1027.96 1028.11 1028.11 1028.07 1028.15 1028.24 1028.35 1028.44 1028.51 1028.48 1028.35
1020.78 1021.20 1021.63 1022.11 1022.66 1022.98 1023.26 1023.91 1024.38 1025.25 1025.59 1026.33 1027.14 1027.32 1027.29 1027.37 1027.62 1027.76 1027.94 1028.13 1028.21 1028.29 1028.25 1028.33 1028.41 1028.37 1028.34 1028.42 1028.47 1028.61 1028.70 1028.65 1028.51
1020.44 1020.69 1021.28 1021.66 1022.30 1022.87 1023.19 1023.45 1024.34 1024.84 1025.21 1025.84 1026.73 1027.60 1027.81 1027.58 1027.60 1027.72 1027.78 1027.84 1028.00 1028.37 1028.50 1028.56 1028.65 1028.75 1028.91 1028.86 1028.82 1028.76 1028.84 1028.74 1028.61
1020.07 1020.43 1020.89 1021.34 1021.75 1022.41 1022.75 1023.17 1023.58 1024.38 1024.96 1024.83 1025.37 1026.81 1026.80 1027.30 1027.59 1027.64 1027.75 1027.90 1028.04 1028.14 1028.58 1028.75 1028.89 1029.05 1029.20 1029.24 1029.33 1029.16 1029.02 1028.76 1028.60
1020.07 1020.32 1020.72 1021.11 1021.55 1022.02 1022.29 1022.61 1023.06 1023.54 1024.58 1025.30 1025.10 1025.21 1025.47 1026.51 1027.67 1027.72 1027.90 1028.23 1028.35 1028.27 1028.44 1028.79 1028.92 1029.15 1029.35 1029.28 1029.17 1029.28 1029.15 1029.04 1028.83
1019.97 1020.20 1020.44 1020.82 1021.33 1021.71 1022.11 1022.52 1022.91 1023.09 1023.69 1024.22 1024.99 1025.41 1025.61 1025.75 1026.40 1027.44 1027.72 1027.96 1028.17 1028.50 1028.78 1029.02 1029.26 1029.17 1029.27 1029.57 1029.33 1029.26 1029.07 1028.96 1028.78
Thickness
5709 5707 5705 5703 5701 5700 5699 5698 5696 5695 5692 5691 5689 5688 5687 5686 5686 5685 5685 5685 5684 5683 5682 5681 5678 5678 5678 5675 5673 5672 5674 5673 5671
5705 5703 5701 5700 5698 5697 5695 5694 5694 5692 5690 5687 5686 5685 5684 5683 5682 5682 5682 5681 5681 5679 5676 5674 5673 5672 5670 5668 5667 5668 5667 5666 5665
5701 5699 5697 5696 5696 5694 5692 5691 5691 5690 5687 5684 5684 5683 5682 5681 5680 5679 5678 5677 5675 5671 5669 5668 5667 5666 5664 5662 5662 5661 5661 5661 5659
5698 5696 5694 5693 5692 5690 5689 5688 5687 5686 5684 5682 5682 5680 5679 5677 5675 5674 5672 5670 5668 5667 5664 5663 5660 5658 5657 5657 5657 5656 5656 5654 5654
5694 5693 5691 5690 5688 5686 5685 5685 5684 5683 5680 5679 5680 5677 5674 5672 5670 5669 5668 5667 5664 5661 5659 5656 5655 5653 5653 5652 5652 5651 5650 5648 5648
5689 5689 5688 5687 5685 5682 5682 5681 5680 5679 5677 5676 5674 5672 5670 5668 5666 5665 5662 5661 5659 5656 5653 5651 5650 5649 5647 5647 5645 5644 5644 5643 5642
5685 5685 5683 5682 5680 5678 5677 5676 5675 5675 5672 5669 5667 5666 5664 5664 5663 5661 5660 5657 5653 5650 5648 5647 5645 5644 5642 5642 5640 5639 5637 5636 5636
5679 5679 5678 5677 5676 5674 5672 5671 5670 5668 5666 5663 5662 5661 5659 5658 5657 5657 5654 5651 5648 5645 5643 5642 5641 5639 5638 5637 5635 5634 5632 5631 5630
5673 5672 5672 5671 5671 5669 5668 5666 5664 5662 5660 5658 5656 5655 5654 5653 5653 5652 5650 5647 5643 5640 5638 5636 5635 5633 5632 5630 5629 5628 5626 5625 5624
5668 5667 5667 5666 5665 5665 5663 5661 5659 5656 5654 5652 5651 5649 5647 5647 5646 5645 5643 5641 5638 5635 5633 5630 5629 5627 5625 5623 5621 5620 5619 5618 5616
5664 5662 5661 5661 5661 5660 5659 5657 5654 5650 5648 5646 5645 5643 5641 5640 5638 5637 5636 5634 5632 5630 5628 5625 5623 5621 5619 5616 5614 5612 5610 5608 5607
5661 5659 5657 5656 5656 5655 5653 5650 5648 5646 5643 5641 5638 5637 5635 5634 5632 5630 5628 5626 5625 5623 5621 5619 5616 5614 5611 5608 5605 5603 5601 5599 5598
5656 5655 5655 5653 5651 5651 5649 5646 5641 5640 5639 5635 5633 5631 5629 5627 5626 5624 5622 5619 5617 5615 5612 5610 5607 5605 5603 5599 5596 5594 5592 5591 5589
5651 5651 5651 5650 5648 5647 5645 5642 5641 5634 5631 5629 5627 5625 5624 5622 5620 5618 5615 5612 5610 5608 5604 5601 5598 5596 5593 5591 5587 5585 5582 5580 5579
5648 5647 5646 5645 5644 5643 5641 5639 5634 5632 5628 5623 5619 5617 5615 5614 5613 5611 5609 5606 5603 5600 5596 5592 5589 5586 5584 5580 5577 5573 5570 5568 5567
5645 5644 5643 5640 5637 5636 5636 5632 5629 5622 5619 5615 5607 5606 5606 5605 5603 5600 5598 5595 5592 5589 5588 5585 5581 5578 5574 5571 5568 5564 5560 5557 5556
5641 5641 5637 5637 5633 5630 5629 5627 5622 5619 5616 5611 5603 5598 5596 5595 5594 5593 5590 5589 5586 5581 5578 5575 5571 5568 5564 5559 5555 5552 5549 5546 5543
5633 5635 5634 5632 5629 5626 5624 5622 5620 5613 5609 5611 5607 5594 5598 5589 5586 5584 5582 5580 5577 5574 5567 5563 5560 5556 5552 5548 5543 5539 5537 5535 5532
5625 5626 5626 5624 5622 5620 5618 5615 5614 5611 5605 5597 5600 5598 5597 5589 5579 5575 5571 5567 5564 5562 5559 5553 5550 5545 5540 5536 5532 5527 5524 5521 5518
5616 5617 5617 5617 5615 5612 5609 5607 5605 5604 5601 5596 5589 5585 5584 5582 5578 5568 5563 5558 5554 5550 5545 5542 5536 5533 5529 5522 5518 5513 5511 5507 5505